Location: Unspecified
(0.0000°N, 0.0000°E)
Time: 07:33:19
(UTC+01:00)

Cosmos 1833 Rocket - Visible Passes

Search period start: 21 November 2017 00:00
Search period end: 01 December 2017 00:00
Orbit: 834 x 838 km, 71.0° (Epoch: 20 November)

Date Brightness Start Highest point End Pass type
(mag) Time Alt. Az. Time Alt. Az. Time Alt. Az.
21 Nov 3.2 20:54:11 50° S 20:54:11 50° S 20:58:18 10° SSE visible
22 Nov 2.6 20:30:22 10° NNW 20:35:59 90° WSW 20:41:38 10° SSE visible
23 Nov 2.5 20:13:42 10° NNW 20:19:18 81° ENE 20:24:56 10° SSE visible
24 Nov 2.6 19:57:02 10° N 20:02:37 73° ENE 20:08:14 10° SSE visible
25 Nov 2.6 19:40:24 10° N 19:45:57 65° ENE 19:51:31 10° SSE visible
26 Nov 2.7 19:23:46 10° N 19:29:15 57° ENE 19:34:47 10° SSE visible
27 Nov 2.9 19:07:10 10° N 19:12:35 51° ENE 19:18:02 10° SSE visible
27 Nov 6.0 20:55:48 10° WSW 20:56:15 10° WSW 20:56:43 10° WSW visible
28 Nov 6.2 06:10:21 10° SE 06:12:27 12° ESE 06:14:34 10° E visible
28 Nov 5.9 20:37:39 10° W 20:39:34 12° WSW 20:41:29 10° SW visible
29 Nov 6.4 05:54:45 10° ESE 05:55:46 10° ESE 05:56:48 10° E visible
29 Nov 5.9 20:20:16 10° WNW 20:22:52 13° WSW 20:25:31 10° SW visible
30 Nov 5.8 20:03:03 10° WNW 20:06:12 15° WSW 20:09:21 10° SW visible
